This is the latest recevied weather packets stored in our database for station/object JA0BES-13. If no packets are shown the sender has not sent any weather packets the latest 10 day(s).
| Time | Temp. | Humidity | Pressure | Rain* | Wind** | Luminosity | Snow |
|---|---|---|---|---|---|---|---|
| 1777614098 | 18.33° C | 100% | 993.9 hPa | 7.62 mm | - | - | - |
| 1777613498 | 18.33° C | 100% | 993.6 hPa | 7.62 mm | - | - | - |
| 1777612897 | 18.33° C | 100% | 993.8 hPa | 7.62 mm | - | - | - |
| 1777612298 | 17.78° C | 100% | 994 hPa | 7.37 mm | - | - | - |
| 1777611697 | 18.33° C | 100% | 994.2 hPa | 7.37 mm | - | - | - |
| 1777611097 | 18.33° C | 100% | 994.3 hPa | 7.37 mm | - | - | - |
| 1777610496 | 17.78° C | 100% | 994.1 hPa | 7.37 mm | - | - | - |
| 1777609896 | 17.22° C | 100% | 994.1 hPa | 7.37 mm | - | - | - |
| 1777609295 | 17.22° C | 100% | 994.7 hPa | 7.37 mm | - | - | - |
| 1777608695 | 17.22° C | 100% | 995.1 hPa | 7.37 mm | - | - | - |
| 1777608095 | 16.67° C | 100% | 995.3 hPa | 7.37 mm | - | - | - |
| 1777607495 | 16.67° C | 100% | 995.6 hPa | 7.37 mm | - | - | - |
| 1777606894 | 16.67° C | 100% | 996 hPa | 7.37 mm | - | - | - |
| 1777606294 | 16.67° C | 100% | 996.3 hPa | 7.37 mm | - | - | - |
| 1777605693 | 16.67° C | 100% | 996.8 hPa | 7.37 mm | - | - | - |
| 1777605093 | 16.67° C | 100% | 996.9 hPa | 7.37 mm | - | - | - |
| 1777604493 | 16.11° C | 100% | 996.9 hPa | 7.37 mm | - | - | - |
| 1777603893 | 15.56° C | 100% | 997.4 hPa | 7.37 mm | - | - | - |
| 1777603292 | 15.56° C | 100% | 998 hPa | 7.37 mm | - | - | - |
| 1777602692 | 16.11° C | 100% | 997.9 hPa | 7.37 mm | - | - | - |
| 1777602091 | 16.11° C | 100% | 998.3 hPa | 7.37 mm | - | - | - |
| 1777601491 | 16.11° C | 100% | 998.5 hPa | 7.37 mm | - | - | - |
| 1777600890 | 16.11° C | 100% | 998.3 hPa | 7.37 mm | - | - | - |
| 1777600290 | 15.56° C | 100% | 999 hPa | 7.37 mm | - | - | - |
| 1777599690 | 15° C | 100% | 999.2 hPa | 7.37 mm | - | - | - |
* Rain since midnight (hover to see other rain measurements)
** Current wind speed in m/s (hover to see current wind gust speed)